Location: Casco Volunteer Fire Department
(44.5576°N, 87.6146°W)
Time: 04:18:03
(UTC+00:00)

Cosmos 1833 - Pass Details

Date: 22 January 2026
Orbit: 831 x 867 km, 70.9° (Epoch: 10 February)

Event Time Altitude Azimuth Distance (km) Brightness Sun altitude
Exits shadow 12:19:19 - 335° (NNW) 3,391 6.9 -10.7°
Reaches altitude 10° 12:21:38 10° 336° (NNW) 2,519 6.3 -10.3°
Maximum altitude 12:27:26 79° 64° (ENE) 885 4.4 -9.3°
Drops below altitude 10° 12:33:11 10° 151° (SSE) 2,489 7.4 -8.3°
Sets 12:35:37 0° 153° (SSE) 3,417 8.2 -7.9°
